Williams Lake Airport
CYWL : rendu visible

Aérodrome :











RETROUVEZ-NOUS SUR...

 
LOGIN :

S'inscrire | Disclaimer

   EN    FR    IT 

 









Légende :    VFR   VFR Marginal   IFR   IFR Intensif   IFR Très Intensif
Visi : 
Plafond : 
>= 8 km
>= 3000ft
5 à 8 km
1000 à 3000 ft
1500m à 5 km
500 à 1000 ft
800 à 1500m
200 à 500 ft
< 800m
< 200 ft
Symboles :   Orages  Brouillard  Fortes neiges  Fortes précipitations  Vent > 20 kt






- Altitude de l'aérodrome : 3085 ft
- Code IATA : YWL


CYWL - Williams Lake

DERNIER METAR :
  • 281200Z 13009KT 15SM SCT080 OVC130 02/M03 A2964 RMK AC4AC4 SLP065

METARs EXPIRÉS :
  • 281100Z 13008KT 15SM SCT080 OVC150 03/M03 A2965 RMK AC4AC4 SLP069
  • 281000Z 13007KT 15SM BKN080 OVC140 03/M03 A2967 RMK AC5AC3 SLP075

TAF TAF CYWL
Valide du 28 à 13h jusqu'au 29 à 01h UTC


281238Z 2813/2901 13012KT P6SM SCT080 OVC130
BECMG 2815/2817 13017G27KT RMK NXT FCST BY 281900Z



MET'MAP, la Météo Aéronautique d'un coup d'oeil ! - Copyright ORBIFLY Décembre 2007 - Disclaimer

ORBIFLY MET'MAP TEAM :

Programmation & Développement : Alexandra Zaïnal
Sur une idée originale de : Baudouin d'Aumeries
Assistance à la programmation : Marc-Olivier Méhu
Soutien technique & logistique : Manuel Goepfert

Contact : metmap@orbifly.com




SOURCES & CREDITS :

   NOAA       Earth
Advisory